Starlink 2633

operational
NORAD ID: 48435 Int'l Des: 2021-040 Owner: SPXS Country: US Constellation: starlink
LEOCIRCULARSTARLINK_TYPE

Über Starlink 2633

Beschreibung wird geladen...

Live-Position

3D-Globus wird geladen...

Nächste Überflüge

Höhenverlauf

Altitude vs Time

uPlot chart will show altitude changes over time

Zweizeiliger Elementsatz

1 48435U 21040H 26035.79502664 .00005001 00000-0 35430-3 0 9990
2 48435 53.0539 314.2989 0001378 110.4506 249.6631 15.06412376261873
Epoch: 4. Feb. 2026 • Age: 13 hours

Aktueller Status

Höhe 548.6 km
Geschwindigkeit 7.59 km/s
Subsatellitenpunkt 30.06°N, 82.2°E
Startdatum 9. Mai 2021
Alter 4.7 years
Typ internet

Technische Details

Klassifizierung Payload
Masse 260.00 kg
Trockenmasse 248.00 kg
Gesamtmasse 260.00 kg
Länge 0.20 m
Durchmesser 2.80 m
Spannweite 9.00 m
Form Box + pan
Hersteller SPXS
Bus-Typ Starlink
Phasenstatus In Orbit
Besitzer/Staat SPXS/US

Große Konstellationen

Loading constellations...